Regional Weather Roundup
Issued by NWS

Home | Current Version | Previous Version | Graphics & Text | Print | Product List | Glossary On
Versions: 1 2 3 4 5 6 7 8 9 10 11 12 13 14 15 16 17 18 19 20 21 22 23 24 25 26 27 28 29 30 31 32 33 34 35 36 37 38 39 40 41 42 43 44 45 46 47 48 49 50
000
ASUS45 KTFX 260004
RWRMT
MONTANA HOURLY WEATHER ROUNDUP
NATIONAL WEATHER SERVICE GREAT FALLS MT
604 PM MDT FRI JUL 25 2014

NOTE: "FAIR" INDICATES FEW OR NO CLOUDS BELOW 12000 FEET WITH NO
SIGNIFICANT WEATHER AND/OR OBSTRUCTIONS TO VISIBILITY.

* THESE STATIONS ARE NOT UNDER NWS QUALITY CONTROL. THEY DO NOT
   REPORT WEATHER SUCH AS PRECIPITATION OR FOG.

MTZ001>007-043-260100-
WEST OF THE DIVIDE
CITY           SKY/WX    TMP DP  RH WIND       PRES   REMARKS
KALISPELL      PTCLDY    75  39  27 W12G20    29.99S
MISSOULA       CLEAR     81  36  20 NW17G26   30.02S
BUTTE          CLEAR     73  27  18 W16G23    30.08R
MULLAN PASS    CLEAR     59  45  60 VRB3      30.19R
* ESSEX        N/A       67  39  36 SE1G6      N/A
* LINCOLN      N/A       72  38  29 W7G22      N/A
* LOOKOUT PASS N/A       64  44  48 NW4G11     N/A
* POLSON       N/A       73  40  30 SW3G9      N/A
* RONAN APT    CLEAR     77  39  26 SW14       N/A
* SEELEY LAKE  N/A       73  40  30 W9G20      N/A
* THOMP F APT  CLEAR     77  18  11 S14G26     N/A
$$

MTZ008-052>055-260100-
SOUTHWEST MONTANA
CITY           SKY/WX    TMP DP  RH WIND       PRES   REMARKS
BOZEMAN        CLEAR     81  30  16 NW18G24   29.96F
DILLON         CLEAR     79  34  20 NW12      30.02S
W YELLOWSTONE  CLEAR     72  23  16 S16G25    30.14F
* THREE FORKS  CLEAR     84  34  17 SW10G16    N/A
* BOULDER HILL N/A       74  30  20 NE6G20     N/A
* RAYNOLDS PAS N/A       75  58  56 S15G22     N/A
* WHITEHALL    N/A       84  28  13 W13G25     N/A
* WISE RIVER   N/A       74  29  19 NW18G27    N/A
$$

MTZ009>010-012-014-046-048-049-054-260100-
EAST SLOPES AND CENTRAL MONTANA
CITY           SKY/WX    TMP DP  RH WIND       PRES   REMARKS
CUT BANK       CLEAR     73  36  26 W24G35    29.93R
GREAT FALLS    CLEAR     79  28  15 W26G36    29.91R
HELENA         CLEAR     81  30  16 NW21G32   29.97F
MALMSTROM AFB  CLEAR     79  30  17 W25G38    29.93R
* CONRAD       PTCLDY    75  39  27 W20G29     N/A
* DEARBORN     N/A       77  36  23 S19G27     N/A
* EAST GLACIER N/A       66  38  36 W16G24     N/A
* MONARCH      N/A       71  23  16 W28G37     N/A
* PENDROY      N/A       71  37  29 NW24G30    N/A
* ROGERS PASS  N/A       67  35  31 SE13G19    N/A
* SAINT MARY   N/A       68  38  33 W8G24      N/A
* SWEET GRASS  N/A       73  36  26 NW26G34    N/A
$$

MTZ011-013-016-021-035-040-045-047-050-051-260100-
NORTH CENTRAL MONTANA
CITY           SKY/WX    TMP DP  RH WIND       PRES   REMARKS
HAVRE          PTCLDY    79  36  21 W28G33    29.80R
LEWISTOWN      CLEAR     81  27  14 NW29G37   29.92R
* CHESTER      N/A       76  33  21 NW22G36    N/A
* DENTON       N/A       79  32  18 W22G34     N/A
* GEYSER       N/A       76  32  20 W30G39     N/A
* JUDITH GAP   N/A       78  33  19 W17G26     N/A
* LOMA         N/A       80  34  19 W26G34     N/A
$$

MTZ017>020-022>027-061-062-260100-
NORTHEAST MONTANA
CITY           SKY/WX    TMP DP  RH WIND       PRES   REMARKS
GLASGOW        CLEAR     84  34  17 W24G33    29.73F
GLENDIVE       CLEAR     84  34  17 NW15G23   29.78S
JORDAN         CLEAR     86  23  10 NW17G30   29.79R
SIDNEY         CLEAR     86  34  16 W10G20    29.76R
WOLF POINT     CLEAR     86  32  14 W14G24    29.73F
* BEAVER HILL  N/A       85  32  15 W18G34     N/A
* CIRCLE       N/A       84  37  19 W11G25     N/A
* LINDSAY DVD  N/A       81  32  17 W16G27     N/A
* NAVAJO       N/A       76  44  32 W16G21     N/A
$$

MTZ028>042-056>058-260100-
SOUTHCENTRAL AND SOUTHEAST MONTANA
CITY           SKY/WX    TMP DP  RH WIND       PRES   REMARKS
BAKER          CLEAR     86  39  19 NW14G21   29.82F
BILLINGS       CLEAR     88  28  11 N17       29.88R
LIVINGSTON     CLEAR     84  25  11 W20G33    29.93F
MILES CITY     CLEAR     90  25   9 NW20G31   29.78F
* LAUREL APT   CLEAR     88  30  12 W7         N/A
* ROUNDUP APT  CLEAR     84  25  11 W22G33     N/A
* ALZADA       N/A       85  47  27 E7         N/A
* HYSHAM       N/A       85  31  14 NW12G29    N/A
* LAME DEER    N/A       83  33  16 NW9G16     N/A
* REED POINT   N/A       85  36  17 W20G32     N/A
* ROSCOE HILL  N/A       81  31  16 NE6G11     N/A
$$

REGIONAL REPORTS...DAKOTAS
CITY           SKY/WX    TMP DP  RH WIND       PRES   REMARKS
WILLISTON      CLEAR     84  36  18 W13       29.75S
DICKINSON      CLEAR     82  52  35 S7        29.79F
CROSBY         CLEAR     75  52  45 W9        29.74S
TIOGA          CLEAR     77  45  32 W14       29.79F
WATFORD CITY   CLEAR     82  39  22 W13G18    29.73F
BISMARCK       CLEAR     82  46  28 SW6       29.81S
GRAND FORKS    FAIR      79  57  47 W7        29.73R
FARGO          CLEAR     81  55  41 NW13      29.74S HI  81
BUFFALO SD     CLEAR     82  48  31 SE9       29.79F
RAPID CITY     PTCLDY    79  54  42 S9        29.86F
$$

REGIONAL REPORTS...WYOMING/IDAHO/WASHINGTON
CITY           SKY/WX    TMP DP  RH WIND       PRES   REMARKS
GILLETTE       PTCLDY    91  43  19 N14G23    29.86R
SHERIDAN       CLEAR     90  46  22 N5        29.86S
YELLOWSTONE LA CLEAR     68  12  11 VRB7      30.25R
SALMON         CLEAR     82  30  15 N12       29.94F
MULLAN PASS    CLEAR     59  45  60 VRB3      30.19S
SAND POINT     PTCLDY    73  43  34 SW8       30.04F
SPOKANE        FAIR      77  36  23 W10       30.05F

$$




USA.gov is the U.S. government's official web portal to all federal, state and local government web resources and services.